Wind_Speed
1 2 4 5 4 3 2 1 1 0 1 1 2 3 3 3 4 6 4 4 4 4 4 3 3 4 2 1 3 4 4 4 4 5 5 3 1 3 4 6 7 6 5 5 6 7 8 9 8 6 5 5 5 5 6 8 9 9 9 9 9 9 11
3 3 5 5 4 3 2 1 0 1 1 2 2 3 3 4 6 7 7 7 6 5 5 3 1 1 2 2 1 2 3 3 4 6 7 6 5 3 1 1 2 2 1 1 4 6 8 10 8 7 6 5 4 4 3 4 5 5 6 5 5 6 8
5 5 6 6 5 4 2 1 1 2 2 3 3 3 3 5 7 8 8 8 7 8 9 9 7 5 4 2 1 0 1 1 1 3 4 5 6 6 5 5 5 6 6 5 3 2 4 7 7 9 9 6 6 6 4 2 1 2 2 3 3 3 4
6 6 7 7 6 4 3 2 2 3 4 4 5 6 6 7 7 8 8 8 8 9 10 11 10 9 7 6 5 4 4 3 2 2 2 3 4 4 4 4 4 4 5 5 5 5 5 5 7 10 10 7 7 8 8 6 4 3 2 1 1 2 3
7 7 8 7 5 3 2 3 3 4 5 6 7 8 8 8 7 8 8 8 8 9 9 10 10 10 9 8 8 7 7 7 6 6 5 4 3 2 2 2 2 2 2 3 3 3 3 4 6 8 9 7 8 10 11 9 8 7 6 5 5 5 4
9 8 8 7 5 2 2 3 4 6 7 8 8 9 9 8 8 8 8 8 8 9 9 9 9 9 9 8 8 8 8 8 8 7 6 5 4 4 4 4 4 3 3 3 3 3 4 5 6 8 8 7 8 11 12 10 10 10 9 8 7 6 5
10 9 8 7 5 3 3 4 6 7 9 9 9 9 8 7 7 7 7 7 8 8 9 9 9 10 10 9 9 8 8 9 8 7 6 6 5 5 6 5 5 5 5 5 5 4 4 5 6 8 9 10 10 11 11 11 10 10 10 9 8 6 5
11 10 9 8 6 4 5 6 7 9 10 10 10 10 9 8 7 7 7 7 8 8 8 8 9 9 10 10 10 9 8 9 9 8 8 8 8 7 7 7 7 7 7 6 6 5 5 5 6 7 9 13 14 13 11 10 9 9 9 8 6 5 4
12 11 10 9 8 6 7 8 8 9 9 10 10 10 9 9 8 8 8 7 8 7 7 7 7 8 8 9 9 9 9 9 9 9 9 9 9 9 8 8 8 8 8 8 7 6 7 7 7 7 8 11 13 14 13 10 9 8 7 5 4 4 4
12 11 10 11 10 8 9 9 9 9 9 9 9 9 9 8 8 8 7 6 6 5 4 4 4 5 6 6 8 8 8 8 8 9 9 9 9 9 9 9 9 9 9 10 9 9 9 9 9 9 9 9 11 13 13 12 10 8 6 4 3 3 3
12 11 11 11 11 10 11 11 11 10 9 9 8 8 7 7 6 5 5 4 4 3 2 1 1 2 2 3 4 5 5 5 5 6 7 7 7 8 8 8 8 8 9 9 10 10 10 10 10 10 10 9 9 10 11 10 9 8 6 5 4 4 4
12 11 11 12 12 12 12 12 12 10 9 8 7 6 5 4 3 2 1 1 1 0 1 2 2 2 2 2 2 2 3 3 2 3 3 4 4 5 5 6 6 6 7 7 7 8 8 8 8 9 9 9 9 8 7 7 7 7 6 5 5 5 5
13 13 13 12 13 13 12 12 12 11 10 8 7 6 4 3 2 1 0 1 2 2 3 3 3 4 3 3 3 2 2 2 2 2 1 2 2 2 2 3 3 3 4 4 4 5 5 4 5 5 6 7 7 8 7 5 6 6 5 6 5 6 6
15 16 14 11 12 13 13 13 12 11 10 9 7 6 4 3 2 1 0 1 2 3 4 4 4 4 4 4 4 3 4 4 3 3 3 3 2 2 2 2 2 2 2 2 2 2 2 2 2 2 3 4 5 5 5 5 5 5 6 6 6 7 7
17 17 15 13 12 12 12 13 13 11 10 10 8 6 4 3 3 2 3 3 3 3 4 5 5 5 5 5 4 4 4 5 5 4 4 3 3 3 3 3 4 3 3 3 3 2 2 2 2 2 3 3 4 5 6 7 7 7 8 8 9 9 10
18 18 16 15 13 11 11 13 13 12 11 10 8 6 5 6 6 6 6 6 6 6 6 7 7 7 7 6 6 6 5 4 5 5 4 3 3 3 4 4 4 5 4 5 4 4 3 3 4 3 3 4 5 6 7 9 10 11 12 13 13 13 13
17 17 17 17 15 13 12 13 14 14 12 11 9 8 8 9 9 9 9 9 10 10 9 9 9 9 8 8 8 8 8 7 6 5 4 4 4 4 4 4 4 5 5 5 5 4 4 4 3 3 3 4 5 6 8 10 12 14 15 15 15 15 15
17 16 18 19 17 15 14 13 14 15 14 13 13 12 11 12 13 12 12 14 15 14 12 12 12 13 13 13 12 11 12 11 10 8 7 6 6 6 6 6 6 5 5 5 5 4 4 4 3 3 3 3 4 6 9 11 13 15 16 17 18 17 17
17 17 19 19 18 17 16 15 15 16 15 15 16 15 14 15 16 14 16 19 20 19 19 18 17 17 17 18 17 16 17 17 15 13 12 11 11 10 8 8 8 8 7 6 5 4 4 4 5 5 5 6 6 8 10 12 13 15 16 18 19 21 21
17 18 20 20 20 21 19 17 17 17 16 16 17 16 16 17 18 17 19 21 22 23 23 23 22 21 20 20 19 19 20 21 20 17 16 16 16 15 13 12 10 10 10 9 7 7 6 7 7 8 9 10 10 11 12 13 14 15 16 18 20 22 24
16 19 21 21 21 21 20 17 15 15 16 16 16 17 18 20 20 20 21 23 23 23 24 24 24 23 22 19 18 18 20 20 20 18 18 18 18 17 17 16 14 14 14 13 12 11 10 10 10 11 13 13 13 13 14 15 16 17 17 18 20 23 25
15 18 19 19 19 18 16 15 15 15 16 16 16 18 20 21 21 22 23 24 23 23 23 24 24 24 23 21 20 20 20 20 20 21 21 21 20 18 17 17 17 17 17 16 16 14 13 13 14 15 16 16 15 16 16 17 17 17 17 18 20 24 26
15 16 17 17 17 15 14 15 17 18 19 18 18 19 20 20 20 19 18 18 19 18 18 19 19 18 18 17 18 18 18 19 20 21 22 21 20 18 17 17 18 19 19 19 18 18 16 16 17 18 19 18 17 18 18 18 18 17 17 18 20 24 26
13 15 16 15 13 11 9 10 10 12 14 14 13 14 14 13 11 10 10 10 10 10 10 10 8 8 8 10 11 12 13 15 16 17 18 19 19 19 18 19 19 19 20 21 21 20 19 19 20 21 21 20 20 20 20 20 19 18 17 19 21 24 25
12 12 12 11 9 7 6 5 4 4 5 6 5 6 6 6 7 7 8 8 8 8 9 9 7 5 6 8 8 8 9 10 11 12 14 15 16 17 18 19 19 20 21 22 22 22 22 23 23 23 22 22 22 22 21 20 19 19 20 22 23 25 26
10 9 8 7 6 4 3 3 2 2 2 2 3 4 5 6 7 8 8 9 9 9 10 10 9 6 6 7 8 8 8 8 9 10 11 12 12 14 15 15 16 16 17 19 20 20 22 24 24 23 23 23 22 21 20 20 21 21 22 23 24 25 29
6 5 5 5 4 3 3 2 2 1 2 3 4 6 7 9 9 10 10 11 11 10 10 10 10 8 7 8 9 9 9 9 9 10 11 11 11 12 13 13 14 14 15 16 16 16 19 23 23 22 22 22 22 21 21 22 22 23 24 25 25 27 31
5 6 6 6 5 5 5 5 4 4 5 5 6 8 9 10 10 10 10 11 11 12 12 12 12 10 10 10 10 11 11 10 10 10 11 11 11 12 12 12 13 13 14 14 13 14 17 21 22 22 22 22 21 22 22 23 24 25 26 27 27 29 31
8 8 8 8 7 7 7 7 6 5 5 5 5 6 6 6 7 7 8 8 9 9 10 11 12 12 12 12 12 12 12 11 11 10 10 11 11 11 11 10 10 10 10 10 11 14 18 20 21 21 21 21 22 23 23 24 25 26 27 28 29 31 31
7 7 8 8 7 7 7 6 5 4 3 3 4 4 5 5 6 8 9 9 9 9 9 9 9 10 10 11 11 11 11 10 10 10 10 10 9 9 9 8 7 6 6 8 11 15 18 20 20 20 20 21 22 22 23 24 26 27 28 29 31 32 32
5 6 6 7 7 7 7 6 5 4 4 4 4 5 6 7 8 9 9 10 10 11 12 11 9 9 9 9 9 9 9 9 9 9 9 8 8 7 6 6 6 6 6 9 13 16 18 19 19 19 20 20 20 21 23 25 26 27 28 30 31 31 31
6 6 6 7 7 7 7 7 6 6 6 6 7 7 8 8 9 10 11 12 13 14 13 11 9 8 8 8 8 8 8 8 8 8 8 7 6 6 5 6 7 8 9 12 14 16 17 17 18 18 19 20 21 23 26 27 27 28 29 30 30 30 30
14 13 13 12 11 10 9 9 8 8 8 8 8 8 9 9 11 12 14 15 16 16 13 10 7 7 7 7 7 7 7 7 7 8 7 6 6 6 7 8 9 10 12 14 15 16 17 18 19 20 21 22 24 26 27 28 29 29 29 29 30 30 30
18 17 17 16 14 13 12 11 11 11 10 10 10 10 11 12 14 15 16 17 16 14 11 8 7 6 6 6 6 5 6 7 7 7 6 6 7 8 9 11 12 13 14 15 16 17 18 19 20 21 22 24 25 27 27 28 28 28 28 29 29 29 29
17 17 17 16 15 13 12 12 13 13 12 12 13 14 15 16 16 16 16 14 13 12 10 9 8 7 7 6 6 5 6 7 7 6 7 8 10 11 12 13 13 14 15 16 17 17 18 19 20 21 23 25 26 26 26 26 27 27 27 28 28 28 28
16 16 16 15 15 14 14 13 13 13 14 15 15 16 16 16 16 14 13 11 11 11 11 11 10 9 9 8 8 7 6 7 7 8 10 11 12 13 14 14 15 15 16 17 17 17 18 19 21 22 23 24 24 24 24 25 26 26 27 27 27 27 27
17 17 17 16 16 15 14 13 13 14 15 16 15 15 14 14 14 13 12 12 12 13 14 13 12 11 10 10 9 9 8 8 10 13 14 14 13 14 15 15 16 16 16 17 17 17 18 19 20 21 21 21 22 22 23 24 24 25 25 25 26 26 26
Wind_Direction
264 262 261 256 249 253 266 267 259 170 116 61 12 20 38 51 33 28 52 74 62 43 20 349 311 308 329 68 55 55 53 47 51 51 40 32 324 252 233 222 232 230 210 198 191 189 183 165 154 156 161 166 176 182 193 215 232 242 248 256 260 260 259
239 248 264 262 239 227 239 240 31 49 37 358 347 0 22 30 32 45 70 77 66 53 41 40 15 251 159 132 41 35 42 38 54 61 49 43 51 44 40 42 325 334 0 192 192 190 174 158 151 144 137 145 153 142 161 209 236 252 251 254 266 267 262
243 252 259 252 230 214 204 172 114 73 49 28 27 46 47 40 49 66 77 77 75 72 70 75 84 104 133 149 174 69 14 13 75 75 61 59 62 59 58 53 38 38 40 38 32 45 122 147 151 134 125 133 130 105 99 141 208 255 251 260 278 281 279
257 264 261 247 230 211 183 152 123 94 72 63 68 77 74 64 68 75 78 82 82 79 77 78 81 87 95 98 99 91 73 73 96 101 115 109 82 61 52 47 44 49 49 53 55 48 71 119 141 132 123 122 119 107 102 106 110 112 114 87 344 345 341
260 272 270 252 234 212 174 147 121 101 89 88 89 90 87 82 79 79 81 82 79 78 78 78 80 82 83 84 83 80 75 76 82 85 98 112 103 89 84 70 65 72 72 76 80 80 98 129 148 146 135 125 119 113 109 111 111 107 101 92 74 50 29
256 271 271 252 233 208 166 134 113 105 101 103 104 100 98 91 85 84 83 79 77 76 75 78 81 80 79 77 76 76 76 76 77 77 81 86 88 89 86 80 79 87 94 90 78 82 111 136 152 158 153 142 129 121 118 116 112 105 97 90 83 75 60
254 266 265 247 227 197 160 134 122 115 110 112 113 109 106 100 92 87 81 79 79 76 73 75 77 77 76 74 74 74 74 74 73 70 71 73 74 76 73 72 76 83 88 86 79 81 97 117 135 150 154 148 138 132 128 121 116 108 98 91 88 88 83
252 262 259 239 218 190 162 145 135 124 119 121 119 116 114 109 103 97 91 90 88 82 77 74 74 75 76 74 75 74 72 72 69 68 70 68 65 64 67 71 74 79 83 81 80 85 89 97 107 125 146 150 143 138 134 130 128 117 102 96 95 96 96
247 255 250 229 208 186 166 152 141 134 131 128 124 121 121 117 114 111 106 102 97 91 85 78 74 75 74 75 76 75 72 70 69 70 70 67 65 63 66 70 70 72 75 73 72 77 81 85 89 102 136 156 150 139 132 128 126 119 114 111 103 95 91
246 253 244 223 206 186 172 161 151 148 143 136 131 127 125 123 120 119 118 113 106 99 89 78 71 71 73 74 76 75 72 69 69 71 71 69 67 65 65 67 67 69 69 66 65 69 73 79 83 95 121 148 158 150 136 122 110 106 109 109 94 74 65
248 250 235 218 206 193 182 170 162 160 154 146 141 136 133 130 125 125 128 127 124 117 105 87 53 49 62 64 69 73 70 67 65 65 70 72 70 70 68 67 68 69 69 66 67 69 70 75 80 84 95 113 140 157 147 127 107 91 78 71 64 48 36
242 235 221 211 205 200 193 182 173 170 165 159 154 149 147 142 137 143 145 150 157 122 327 308 314 326 344 356 13 41 42 44 45 44 56 60 61 67 68 68 68 68 71 73 72 74 71 72 76 77 79 87 103 121 128 123 107 86 60 45 37 24 12
228 217 207 205 206 207 204 195 186 180 176 172 168 164 161 150 144 148 353 343 346 357 346 336 331 329 336 338 333 333 340 342 338 339 355 7 19 34 42 53 57 53 60 68 70 75 74 70 71 74 77 79 82 88 90 89 86 75 48 28 17 3 352
217 211 205 203 208 209 210 208 199 190 186 184 180 171 167 167 164 158 16 341 342 347 346 345 338 334 340 339 334 333 334 335 329 323 319 312 319 327 330 343 356 0 10 22 37 52 51 48 45 50 62 60 55 56 55 53 56 47 24 7 355 345 338
214 213 212 212 213 209 212 215 208 203 200 197 193 185 192 217 237 265 278 279 285 294 307 314 313 315 324 330 339 345 345 344 339 335 329 310 298 300 304 311 315 316 320 324 330 336 331 325 330 349 11 19 21 18 14 15 15 10 360 350 342 335 330
214 218 215 212 213 207 211 216 212 211 208 202 203 209 229 251 258 267 270 266 270 276 277 279 283 289 297 303 310 317 323 331 335 342 345 332 314 308 307 311 314 317 316 312 313 316 316 316 324 343 0 6 10 11 8 4 359 354 349 342 336 331 328
217 222 215 211 211 205 208 216 213 213 214 214 218 224 240 257 261 265 266 263 267 270 268 271 272 272 276 278 280 286 291 293 296 303 314 317 314 314 316 317 318 322 325 323 318 308 302 311 326 342 352 0 5 1 357 354 350 348 348 345 339 331 327
222 221 213 213 215 210 212 219 219 222 226 228 227 228 242 256 260 266 269 268 265 258 258 271 274 270 269 268 266 267 271 275 277 279 282 283 283 287 294 301 304 308 319 329 327 311 295 297 308 314 317 327 339 341 340 343 345 348 349 350 349 343 334
220 216 211 214 218 216 220 230 234 237 238 237 236 237 242 249 255 264 269 269 267 261 262 269 275 276 272 267 267 266 267 270 272 271 274 275 274 273 273 276 283 288 294 303 309 309 301 290 285 284 290 299 308 316 323 328 336 342 345 345 346 345 341
210 208 209 213 216 217 225 235 241 244 243 241 241 241 240 243 252 263 268 269 269 268 268 268 271 279 279 272 270 268 270 276 277 273 272 274 274 272 271 269 270 274 278 278 278 282 286 281 274 274 281 288 292 298 306 313 321 330 336 337 337 337 337
208 209 211 213 215 218 225 231 238 244 244 243 242 241 243 246 254 264 271 275 274 272 273 271 272 278 279 273 270 269 272 280 282 277 273 274 274 273 271 269 266 265 268 268 266 268 273 276 273 271 273 277 279 284 291 300 308 316 324 331 333 332 332
209 211 212 214 216 221 230 234 238 244 246 247 248 249 250 253 259 268 273 276 275 273 273 274 274 276 275 272 270 270 273 277 276 272 271 273 272 270 267 266 266 267 268 268 267 267 269 272 272 271 272 274 277 279 282 288 298 307 316 324 329 330 329
210 211 214 220 225 233 245 247 246 248 249 252 255 255 256 259 266 274 276 274 273 272 273 275 275 275 275 276 276 274 274 275 274 272 271 270 268 264 259 259 262 266 270 270 269 269 270 269 268 268 270 272 273 275 278 284 292 301 310 317 322 324 325
206 208 212 219 224 226 234 238 238 240 242 245 249 253 258 266 275 284 287 282 277 273 274 278 282 283 284 288 288 282 275 274 275 276 274 271 267 263 258 254 253 256 262 266 265 264 262 259 259 261 265 267 270 274 279 283 291 300 307 313 317 319 321
174 180 187 192 195 193 194 197 199 208 217 226 241 256 269 280 288 293 295 293 289 282 278 280 287 297 297 295 297 292 281 278 280 281 279 275 271 266 263 260 256 254 257 261 262 258 253 253 255 258 261 265 270 275 279 282 290 300 308 312 315 317 319
160 161 165 168 172 173 176 181 188 201 226 249 265 276 280 280 282 284 286 288 287 285 283 282 283 286 288 291 295 296 292 288 287 286 284 281 275 270 269 266 263 260 259 262 263 256 249 249 253 257 261 265 269 275 280 285 292 302 309 312 314 317 319
170 169 167 167 171 168 165 175 197 226 255 266 269 272 273 274 276 278 279 281 282 281 282 281 277 269 267 277 287 293 296 295 293 291 289 286 282 276 272 267 264 262 258 259 263 257 246 244 248 253 258 262 267 275 282 288 297 304 309 312 314 316 315
194 193 190 188 191 188 187 195 206 219 236 245 252 258 262 267 271 276 280 283 281 279 277 275 272 266 264 271 280 287 292 294 295 296 294 292 290 285 280 274 268 264 259 256 256 250 241 240 246 251 255 261 269 278 285 292 298 303 307 310 312 312 310
194 194 194 194 195 192 190 191 194 205 223 232 239 249 258 266 275 286 297 302 300 293 284 276 271 267 267 272 278 284 288 292 296 298 296 295 293 287 282 276 269 266 265 257 245 238 236 239 245 251 257 266 274 281 288 294 298 301 304 308 309 309 308
191 195 198 198 196 193 190 190 194 208 224 233 245 257 267 277 290 301 309 314 317 316 311 298 281 271 269 272 277 281 286 291 295 297 297 296 293 286 282 282 281 284 280 259 244 239 239 242 248 255 264 273 280 287 293 297 298 300 303 305 306 306 306
196 200 205 205 203 202 202 206 217 230 241 249 259 266 274 284 294 301 306 310 311 312 313 309 296 282 276 276 278 282 285 288 293 299 303 307 308 304 300 299 295 288 274 257 247 246 248 252 260 268 276 282 289 295 298 298 299 301 302 302 302 302 303
241 239 238 235 231 230 230 235 243 251 260 267 274 281 288 295 299 303 306 308 311 312 311 306 297 287 283 281 283 285 285 286 295 306 312 316 319 314 306 297 283 268 259 256 255 258 264 270 278 284 288 291 294 295 296 296 297 298 298 298 299 300 302
261 261 258 256 255 256 258 261 265 269 273 277 283 288 295 298 301 304 307 309 313 313 309 303 296 292 291 292 291 286 285 291 304 315 316 310 305 299 291 285 278 268 263 263 265 269 274 279 283 286 287 289 290 290 292 293 294 294 295 297 299 301 303
260 259 257 256 256 259 265 270 272 274 276 278 283 289 295 298 301 304 307 309 310 308 304 302 303 304 303 302 295 284 280 287 298 308 310 300 292 287 283 282 280 276 272 270 270 272 275 279 282 284 285 285 286 288 289 290 292 295 297 300 302 305 307
259 258 257 257 257 261 269 274 274 273 275 279 286 292 295 297 299 301 303 302 300 299 299 300 304 308 310 308 299 282 264 262 271 288 300 297 287 280 277 277 275 274 273 273 274 277 279 281 282 282 282 283 284 287 290 292 296 299 302 306 308 309 311
259 260 260 260 262 268 274 275 273 273 276 281 288 293 296 297 295 295 295 294 295 300 303 303 301 302 304 303 297 282 263 257 272 295 305 300 286 276 274 276 275 274 274 275 276 277 279 279 280 281 282 284 287 291 295 299 303 306 309 311 311 312 315
255 256 257 260 265 270 272 271 271 274 278 282 284 290 298 299 294 290 290 292 295 299 302 303 300 295 294 293 287 278 273 278 293 304 306 298 280 270 272 276 275 274 274 274 274 275 277 279 281 284 287 291 295 300 304 307 309 311 312 312 313 315 318
Height
1529 1530 1531 1532 1532 1533 1533 1533 1534 1535 1536 1536 1537 1537 1537 1538 1538 1538 1538 1538 1538 1539 1539 1540 1540 1541 1542 1542 1542 1542 1542 1542 1542 1542 1543 1543 1543 1544 1544 1545 1546 1545 1545 1545 1546 1547 1547 1548 1549 1551 1551 1551 1552 1552 1552 1552 1552 1553 1554 1554 1555 1554 1554
1530 1530 1531 1532 1532 1533 1533 1534 1534 1535 1535 1536 1537 1537 1538 1538 1538 1538 1538 1539 1539 1539 1539 1540 1540 1541 1542 1543 1543 1543 1543 1543 1543 1543 1543 1543 1544 1544 1545 1545 1546 1545 1545 1545 1545 1546 1547 1547 1548 1550 1550 1551 1552 1552 1552 1552 1553 1553 1554 1554 1554 1554 1553
1530 1531 1532 1532 1533 1533 1534 1534 1534 1535 1535 1536 1536 1537 1538 1538 1539 1539 1539 1540 1540 1540 1540 1540 1541 1542 1543 1544 1544 1544 1544 1544 1544 1544 1544 1544 1544 1545 1545 1545 1546 1545 1545 1545 1546 1546 1547 1547 1548 1549 1550 1551 1551 1552 1553 1553 1553 1553 1553 1553 1553 1553 1553
1531 1532 1533 1533 1534 1534 1534 1535 1535 1535 1536 1536 1537 1537 1538 1539 1540 1540 1541 1541 1541 1541 1542 1542 1543 1543 1544 1545 1545 1545 1545 1545 1545 1545 1545 1545 1545 1545 1545 1545 1546 1546 1546 1546 1546 1547 1547 1548 1549 1550 1551 1551 1552 1552 1553 1553 1553 1553 1553 1553 1553 1552 1552
1532 1533 1533 1534 1535 1535 1535 1535 1535 1536 1536 1537 1537 1538 1539 1540 1541 1542 1542 1542 1543 1543 1543 1544 1545 1545 1546 1546 1546 1546 1546 1545 1546 1546 1546 1546 1546 1546 1546 1546 1546 1546 1546 1546 1546 1547 1547 1548 1549 1550 1551 1552 1552 1552 1553 1553 1553 1553 1553 1553 1553 1553 1552
1532 1533 1534 1534 1535 1536 1536 1536 1536 1537 1537 1538 1538 1539 1540 1541 1542 1543 1543 1544 1544 1544 1545 1546 1546 1547 1547 1547 1547 1546 1546 1546 1546 1546 1546 1546 1546 1546 1546 1546 1546 1546 1546 1546 1546 1547 1547 1547 1548 1549 1551 1552 1552 1553 1554 1554 1554 1553 1553 1553 1553 1553 1553
1532 1533 1534 1535 1536 1536 1537 1537 1537 1538 1538 1538 1539 1540 1541 1542 1543 1544 1544 1545 1545 1546 1546 1547 1548 1549 1549 1549 1548 1548 1547 1547 1547 1547 1547 1547 1547 1547 1546 1546 1546 1546 1546 1546 1546 1547 1547 1547 1548 1549 1550 1551 1553 1553 1554 1554 1554 1554 1554 1554 1554 1554 1554
1532 1534 1535 1535 1536 1537 1537 1538 1538 1538 1539 1539 1540 1541 1542 1543 1544 1545 1546 1546 1547 1547 1548 1549 1550 1550 1550 1550 1550 1549 1549 1548 1548 1548 1548 1547 1547 1547 1547 1547 1547 1547 1547 1547 1547 1547 1547 1548 1548 1548 1549 1550 1552 1553 1554 1555 1555 1555 1555 1555 1555 1554 1554
1532 1534 1535 1536 1537 1537 1538 1538 1538 1539 1539 1540 1541 1542 1543 1544 1545 1546 1547 1547 1548 1549 1550 1551 1551 1552 1552 1551 1551 1550 1550 1549 1549 1549 1548 1548 1548 1548 1548 1548 1548 1548 1548 1548 1548 1548 1548 1548 1548 1549 1549 1550 1551 1552 1554 1555 1555 1555 1555 1555 1555 1554 1554
1532 1533 1535 1536 1537 1538 1538 1538 1539 1539 1540 1541 1542 1543 1544 1545 1546 1547 1548 1549 1549 1550 1551 1552 1553 1553 1553 1552 1552 1551 1551 1551 1551 1550 1550 1550 1549 1549 1549 1549 1549 1549 1549 1549 1549 1549 1549 1549 1549 1549 1550 1551 1551 1552 1553 1554 1555 1555 1555 1555 1555 1554 1554
1531 1533 1534 1536 1537 1538 1538 1539 1539 1540 1541 1542 1543 1544 1545 1546 1547 1548 1549 1549 1550 1551 1552 1553 1553 1554 1553 1553 1553 1552 1552 1552 1552 1552 1551 1551 1551 1550 1550 1550 1550 1550 1550 1550 1550 1550 1550 1550 1550 1550 1550 1551 1552 1552 1553 1554 1554 1555 1555 1555 1555 1554 1554
1530 1531 1533 1535 1536 1537 1538 1539 1539 1540 1541 1542 1543 1544 1545 1546 1547 1548 1549 1550 1551 1552 1553 1553 1554 1554 1554 1554 1553 1553 1552 1552 1552 1552 1552 1552 1552 1551 1551 1551 1551 1551 1551 1551 1551 1551 1551 1551 1551 1551 1551 1552 1552 1553 1553 1554 1554 1555 1555 1555 1555 1554 1554
1528 1530 1532 1533 1535 1537 1538 1539 1540 1541 1542 1543 1544 1545 1546 1547 1548 1549 1549 1550 1551 1552 1553 1553 1554 1555 1554 1554 1554 1553 1553 1552 1552 1553 1553 1553 1552 1552 1552 1552 1552 1552 1552 1552 1552 1552 1552 1552 1552 1552 1552 1553 1553 1553 1554 1554 1554 1555 1555 1555 1555 1554 1554
1527 1529 1531 1532 1534 1536 1538 1540 1540 1541 1542 1543 1544 1545 1546 1547 1548 1549 1550 1550 1551 1552 1553 1553 1554 1554 1554 1554 1554 1554 1554 1553 1553 1553 1553 1553 1553 1553 1552 1552 1552 1552 1552 1552 1552 1552 1552 1552 1552 1553 1553 1553 1553 1554 1554 1555 1555 1555 1555 1555 1555 1554 1554
1526 1529 1531 1532 1534 1535 1537 1539 1540 1541 1542 1543 1544 1545 1546 1547 1548 1549 1550 1550 1551 1551 1552 1553 1553 1554 1554 1554 1554 1554 1554 1554 1553 1553 1553 1553 1553 1553 1553 1552 1552 1552 1552 1553 1553 1553 1553 1552 1553 1553 1553 1553 1554 1554 1554 1554 1554 1555 1555 1554 1554 1554 1553
1525 1528 1529 1531 1533 1535 1537 1539 1540 1541 1542 1542 1544 1545 1546 1547 1548 1549 1549 1550 1551 1551 1551 1552 1552 1553 1553 1553 1554 1554 1554 1554 1553 1553 1553 1553 1553 1553 1553 1552 1552 1552 1552 1552 1552 1552 1552 1552 1553 1553 1553 1553 1553 1553 1554 1554 1554 1554 1554 1553 1553 1553 1552
1524 1526 1528 1530 1532 1534 1536 1538 1539 1540 1541 1542 1543 1544 1546 1547 1548 1548 1549 1550 1550 1550 1551 1551 1551 1552 1552 1552 1552 1552 1553 1553 1553 1552 1552 1552 1552 1552 1552 1552 1552 1552 1552 1552 1552 1552 1552 1552 1552 1553 1553 1553 1553 1553 1553 1553 1553 1553 1553 1552 1552 1551 1551
1523 1525 1528 1529 1531 1533 1534 1537 1538 1539 1540 1541 1542 1543 1544 1546 1547 1548 1548 1549 1549 1549 1549 1549 1550 1550 1551 1551 1550 1550 1551 1551 1551 1551 1551 1551 1551 1551 1552 1552 1551 1551 1551 1551 1551 1551 1552 1552 1552 1552 1552 1552 1552 1552 1552 1552 1552 1552 1552 1551 1551 1550 1549
1522 1524 1526 1528 1530 1531 1533 1535 1537 1538 1539 1540 1541 1542 1542 1544 1545 1546 1547 1547 1548 1548 1548 1548 1548 1548 1549 1549 1549 1548 1548 1549 1549 1549 1549 1550 1550 1550 1550 1550 1551 1551 1551 1551 1551 1551 1551 1552 1552 1552 1552 1551 1551 1551 1551 1551 1551 1551 1551 1550 1550 1549 1548
1522 1523 1525 1526 1528 1530 1532 1534 1535 1537 1538 1539 1539 1540 1541 1542 1543 1543 1544 1545 1545 1546 1546 1545 1546 1546 1546 1547 1547 1546 1546 1547 1547 1548 1548 1548 1548 1548 1548 1548 1549 1549 1549 1550 1550 1550 1550 1551 1551 1551 1551 1551 1550 1550 1550 1550 1550 1550 1549 1549 1549 1548 1548
1522 1523 1524 1526 1527 1529 1530 1532 1534 1535 1536 1537 1538 1538 1539 1540 1540 1541 1541 1542 1542 1542 1542 1543 1543 1543 1544 1545 1544 1543 1543 1544 1545 1546 1546 1546 1546 1546 1546 1546 1547 1547 1547 1548 1548 1548 1549 1549 1550 1550 1549 1549 1549 1549 1549 1549 1549 1548 1548 1547 1547 1546 1546
1521 1522 1524 1526 1527 1528 1529 1531 1533 1534 1534 1535 1536 1537 1537 1538 1538 1538 1538 1539 1539 1539 1539 1540 1541 1541 1541 1542 1542 1541 1541 1542 1542 1543 1543 1544 1544 1543 1543 1544 1544 1545 1545 1546 1546 1546 1547 1547 1548 1548 1548 1548 1548 1548 1547 1547 1547 1546 1546 1545 1544 1544 1544
1520 1521 1523 1525 1526 1527 1528 1529 1530 1531 1532 1533 1533 1534 1535 1535 1536 1536 1536 1536 1536 1537 1537 1538 1538 1538 1538 1539 1539 1539 1539 1540 1540 1540 1540 1541 1541 1541 1541 1541 1542 1542 1542 1543 1543 1543 1544 1545 1546 1546 1546 1546 1546 1546 1545 1545 1545 1545 1544 1543 1542 1542 1541
1519 1521 1522 1523 1525 1525 1526 1527 1528 1529 1530 1531 1531 1532 1533 1533 1534 1534 1534 1535 1535 1536 1537 1537 1537 1537 1537 1536 1537 1537 1538 1538 1538 1537 1537 1537 1538 1538 1538 1538 1539 1539 1539 1540 1540 1541 1542 1542 1543 1543 1544 1544 1544 1544 1543 1543 1543 1542 1542 1541 1540 1539 1538
1519 1520 1521 1522 1523 1524 1525 1526 1527 1528 1529 1530 1530 1531 1531 1532 1533 1533 1534 1534 1535 1535 1535 1535 1536 1536 1535 1535 1536 1536 1536 1536 1535 1535 1535 1535 1535 1535 1535 1536 1536 1537 1537 1537 1537 1538 1539 1540 1540 1541 1541 1542 1542 1541 1541 1541 1541 1540 1539 1538 1538 1536 1535
1518 1519 1520 1521 1522 1523 1524 1525 1526 1527 1528 1529 1529 1530 1531 1532 1533 1533 1534 1534 1534 1534 1534 1534 1534 1534 1535 1535 1535 1535 1534 1534 1533 1533 1533 1533 1533 1533 1533 1533 1534 1534 1534 1535 1535 1535 1536 1537 1538 1538 1539 1539 1539 1539 1539 1539 1538 1538 1537 1536 1535 1534 1533
1518 1518 1519 1520 1520 1521 1522 1524 1525 1526 1528 1529 1530 1530 1531 1532 1532 1533 1533 1533 1533 1533 1533 1533 1533 1534 1534 1534 1534 1534 1533 1532 1532 1532 1531 1531 1531 1531 1531 1531 1531 1531 1531 1532 1532 1533 1534 1535 1536 1536 1537 1537 1537 1537 1537 1537 1536 1535 1534 1534 1533 1531 1530
1518 1518 1519 1519 1520 1521 1523 1524 1526 1527 1528 1529 1530 1531 1531 1531 1531 1531 1531 1531 1531 1531 1532 1532 1532 1533 1533 1533 1532 1532 1532 1531 1531 1530 1530 1530 1529 1529 1529 1529 1529 1529 1529 1529 1530 1531 1532 1533 1534 1535 1535 1535 1536 1536 1535 1535 1534 1533 1532 1531 1530 1529 1528
1519 1519 1520 1520 1521 1522 1523 1525 1526 1527 1528 1529 1530 1530 1530 1530 1530 1530 1530 1530 1530 1530 1531 1531 1531 1531 1531 1531 1531 1530 1530 1530 1529 1529 1528 1528 1528 1528 1528 1527 1527 1527 1528 1528 1529 1530 1531 1532 1533 1533 1534 1534 1534 1534 1533 1533 1532 1531 1530 1529 1528 1527 1526
1520 1520 1521 1521 1522 1522 1523 1524 1525 1526 1527 1528 1529 1529 1529 1530 1530 1529 1529 1529 1529 1530 1530 1530 1530 1529 1529 1529 1529 1529 1528 1528 1528 1528 1527 1527 1527 1527 1527 1527 1527 1527 1527 1528 1529 1530 1531 1531 1532 1532 1532 1532 1532 1532 1531 1530 1530 1528 1527 1526 1525 1524 1523
1520 1520 1521 1521 1521 1522 1522 1523 1524 1524 1525 1526 1527 1527 1528 1528 1528 1528 1528 1528 1528 1528 1528 1528 1528 1528 1528 1527 1527 1527 1527 1527 1527 1527 1526 1526 1526 1526 1526 1526 1526 1527 1527 1528 1529 1529 1530 1530 1531 1531 1531 1531 1530 1529 1529 1528 1527 1526 1525 1524 1523 1521 1520
1520 1520 1521 1521 1521 1521 1522 1522 1522 1523 1523 1524 1524 1525 1526 1526 1526 1527 1527 1527 1527 1526 1526 1526 1526 1526 1526 1526 1526 1526 1526 1526 1526 1526 1526 1526 1526 1526 1526 1526 1526 1527 1527 1528 1528 1529 1529 1529 1529 1529 1529 1528 1528 1527 1526 1525 1524 1523 1522 1521 1520 1519 1518
1519 1520 1520 1520 1520 1521 1520 1521 1521 1521 1522 1522 1522 1523 1523 1524 1524 1524 1524 1524 1524 1524 1524 1524 1524 1524 1524 1524 1524 1524 1524 1525 1525 1525 1525 1525 1525 1526 1526 1526 1526 1526 1527 1527 1527 1527 1527 1527 1527 1527 1526 1526 1525 1524 1524 1523 1522 1521 1519 1518 1517 1516 1515
1518 1518 1519 1519 1519 1519 1519 1519 1519 1520 1520 1520 1521 1521 1522 1522 1522 1522 1522 1523 1522 1522 1522 1522 1522 1522 1523 1523 1523 1523 1524 1524 1524 1524 1525 1525 1525 1525 1525 1525 1525 1525 1525 1525 1525 1525 1525 1525 1525 1524 1524 1523 1522 1522 1521 1520 1519 1517 1516 1515 1514 1513 1511
1516 1517 1517 1517 1518 1518 1518 1518 1518 1518 1519 1519 1519 1520 1520 1520 1520 1521 1521 1521 1521 1521 1521 1520 1521 1521 1521 1521 1521 1522 1523 1523 1523 1524 1524 1524 1524 1524 1524 1524 1524 1524 1524 1524 1523 1523 1523 1523 1522 1522 1521 1520 1520 1519 1518 1517 1516 1514 1513 1512 1510 1509 1507
1514 1515 1515 1516 1516 1516 1516 1516 1516 1517 1517 1517 1518 1518 1518 1519 1519 1519 1519 1519 1519 1519 1519 1519 1519 1519 1519 1520 1520 1520 1521 1522 1522 1523 1523 1523 1523 1523 1522 1522 1522 1522 1522 1522 1521 1521 1521 1520 1520 1519 1519 1518 1517 1516 1515 1514 1512 1511 1509 1508 1506 1505 1504
1512 1512 1513 1514 1514 1514 1514 1515 1515 1515 1515 1516 1516 1516 1517 1517 1517 1517 1517 1517 1517 1517 1517 1517 1517 1517 1518 1518 1518 1519 1519 1520 1520 1521 1521 1521 1520 1520 1520 1520 1520 1520 1519 1519 1519 1519 1518 1518 1517 1517 1516 1515 1514 1513 1512 1511 1509 1508 1506 1505 1503 1502 1501